Regional Weather Roundup
Issued by NWS

Home | Current Version | Previous Version | Text Only | Print | Product List | Glossary Off
Versions: 1 2 3 4 5 6 7 8 9 10 11 12 13 14 15 16 17 18 19 20 21 22 23 24 25 26 27 28 29 30 31 32 33 34 35 36 37 38 39 40 41 42 43 44 45 46 47 48 49 50

000
ASUS43 KBIS 232102
RWRND

NORTH DAKOTA REGIONAL WEATHER ROUNDUP
NATIONAL WEATHER SERVICE BISMARCK ND
400 PM CDT SUN JUL 23 2017

NOTE: "FAIR" INDICATES FEW OR NO CLOUDS BELOW 12,000 FEET WITH NO
SIGNIFICANT WEATHER AND/OR OBSTRUCTIONS TO VISIBILITY.


NDZ001>003-009>011-017-232200-
NORTHWEST NORTH DAKOTA

CITY           SKY/WX    TMP DP  RH WIND       PRES   REMARKS
WILLISTON      SUNNY     91  49  23 CALM      29.94F
MINOT          SUNNY     84  50  30 S6        29.98F
MINOT AFB      SUNNY     82  53  36 S7        29.97F
$$

NDZ018>021-031>035-040>046-232200-
SOUTHWEST NORTH DAKOTA

CITY           SKY/WX    TMP DP  RH WIND       PRES   REMARKS
BISMARCK       SUNNY     83  55  38 CALM      30.01F
DICKINSON      SUNNY     88  49  25 VRB5      29.99F
GARRISON         N/A     81  54  39 S9        29.99F
HETTINGER ARPT SUNNY     89  46  22 CALM      30.02F
$$

NDZ004>008-012>016-024-026-027-054-232200-
NORTHEAST NORTH DAKOTA

CITY           SKY/WX    TMP DP  RH WIND       PRES   REMARKS
GRAND FORKS    MOSUNNY   79  63  57 NW6       29.99F
GRND FRKS AFB  MOSUNNY   76  61  58 S3        30.01F
DEVILS LAKE    SUNNY     77  57  50 SW8       30.03F
$$

NDZ022-023-025-028>030-036>039-047>053-232200-
SOUTHEAST NORTH DAKOTA

CITY           SKY/WX    TMP DP  RH WIND       PRES   REMARKS
FARGO          SUNNY     76  60  57 CALM      30.00F
JAMESTOWN      MOSUNNY   79  57  46 NE5       30.01F
$$





USA.gov is the U.S. government's official web portal to all federal, state and local government web resources and services.